| time (UTC) | temp C | wind direction | speed KPH | gust KPH | rain 1hr cm | rain 24hr cm | rain mn cm | humidity % | barometer mb |
| 20260507030424 | 8 | 157 | 0.0 | 0.0 | 0.00 | 0.00 | 0.00 | 68 | 1012.2 |
| 20260507025433 | 8 | 157 | 0.0 | 0.0 | 0.00 | 0.00 | 0.00 | 69 | 1012.2 |
| 20260507024431 | 8 | 157 | 0.0 | 0.0 | 0.00 | 0.00 | 0.00 | 65 | 1012.2 |
| 20260507023439 | 8 | 157 | 0.0 | 0.0 | 0.00 | 0.00 | 0.00 | 65 | 1012.1 |
| 20260507022458 | 8 | 157 | 0.0 | 0.0 | 0.00 | 0.00 | 0.00 | 69 | 1012.1 |
| 20260507021443 | 8 | 157 | 0.0 | 0.0 | 0.00 | 0.00 | 0.00 | 72 | 1012.1 |
| 20260507020507 | 9 | 157 | 0.0 | 0.0 | 0.00 | 0.00 | 0.00 | 70 | 1012.1 |
| 20260507014401 | 9 | 157 | 0.0 | 0.0 | 0.00 | 0.00 | 0.00 | 65 | 1011.8 |
| 20260507013410 | 10 | 157 | 0.0 | 0.0 | 0.00 | 0.00 | 0.00 | 69 | 1011.7 |
| 20260507012422 | 10 | 157 | 0.0 | 0.0 | 0.00 | 0.00 | 0.00 | 67 | 1011.6 |
| 20260507011421 | 10 | 157 | 0.0 | 0.0 | 0.00 | 0.00 | 0.00 | 59 | 1011.6 |
| 20260507010401 | 10 | 157 | 0.0 | 0.0 | 0.00 | 0.00 | 0.00 | 56 | 1011.6 |
| 20260507005416 | 11 | 157 | 0.0 | 0.0 | 0.00 | 0.00 | 0.00 | 52 | 1011.3 |
| 20260507004346 | 11 | 157 | 0.0 | 0.0 | 0.00 | 0.00 | 0.00 | 54 | 1011.4 |
| 20260507003312 | 11 | 157 | 0.0 | 0.0 | 0.00 | 0.05 | 0.00 | 47 | 1011.2 |
| 20260507002332 | 12 | 154 | 0.0 | 0.0 | 0.00 | 0.05 | 0.00 | 47 | 1011.1 |
| 20260507001321 | 12 | 149 | 0.0 | 0.0 | 0.00 | 0.05 | 0.00 | 46 | 1011.1 |
| 20260507000301 | 12 | 143 | 0.0 | 0.0 | 0.00 | 0.05 | 0.00 | 45 | 1011.1 |
| 20260506234132 | 12 | 152 | 0.0 | 0.0 | 0.00 | 0.05 | 0.00 | 44 | 1011.3 |
| 20260506233109 | 12 | 111 | 0.0 | 0.0 | 0.00 | 0.05 | 0.00 | 46 | 1011.3 |
| 20260506232119 | 12 | 119 | 0.0 | 0.0 | 0.00 | 0.08 | 0.00 | 43 | 1011.1 |
| 20260506231056 | 12 | 155 | 0.0 | 0.0 | 0.00 | 0.08 | 0.00 | 42 | 1011.3 |
| 20260506230107 | 13 | 129 | 0.0 | 0.0 | 0.00 | 0.08 | 0.00 | 43 | 1011.3 |
| 20260506225041 | 13 | 119 | 0.0 | 0.0 | 0.00 | 0.08 | 0.00 | 42 | 1011.4 |
| 20260506224021 | 13 | 170 | 0.0 | 0.0 | 0.00 | 0.08 | 0.00 | 42 | 1011.3 |
| 20260506223042 | 13 | 82 | 0.0 | 0.0 | 0.00 | 0.08 | 0.00 | 43 | 1011.3 |
| 20260506222008 | 13 | 54 | 0.0 | 0.0 | 0.00 | 0.10 | 0.00 | 42 | 1011.2 |
| 20260506221028 | 13 | 163 | 0.0 | 0.0 | 0.00 | 0.13 | 0.00 | 40 | 1011.2 |
| 20260506213754 | 13 | 192 | 0.0 | 0.0 | 0.00 | 0.20 | 0.00 | 43 | 1011.1 |
| 20260506211658 | 13 | 141 | 0.0 | 0.0 | 0.00 | 0.25 | 0.00 | 40 | 1011.3 |
| 20260506210717 | 13 | 150 | 0.0 | 8.0 | 0.00 | 0.25 | 0.00 | 43 | 1011.2 |
| 20260506205732 | 13 | 171 | 0.0 | 4.8 | 0.00 | 0.25 | 0.00 | 41 | 1011.2 |
| 20260506204726 | 13 | 69 | 0.0 | 0.0 | 0.00 | 0.25 | 0.00 | 42 | 1011.3 |
| 20260506203658 | 13 | 167 | 0.0 | 0.0 | 0.00 | 0.25 | 0.00 | 43 | 1011.1 |
| 20260506202646 | 13 | 136 | 0.0 | 1.6 | 0.00 | 0.25 | 0.00 | 38 | 1011.0 |
| 20260506201706 | 13 | 118 | 0.0 | 0.0 | 0.00 | 0.25 | 0.00 | 39 | 1011.0 |
| 20260506200710 | 13 | 192 | 0.0 | 3.2 | 0.00 | 0.25 | 0.00 | 40 | 1011.4 |
| 20260506195734 | 13 | 95 | 0.0 | 0.0 | 0.00 | 0.25 | 0.00 | 39 | 1011.4 |
| 20260506193622 | 13 | 131 | 0.0 | 0.0 | 0.00 | 0.30 | 0.00 | 42 | 1011.5 |
| 20260506192602 | 13 | 88 | 0.0 | 3.2 | 0.00 | 0.30 | 0.00 | 41 | 1011.6 |
| 20260506191533 | 13 | 47 | 0.0 | 0.0 | 0.00 | 0.30 | 0.00 | 40 | 1011.6 |
| 20260506190544 | 13 | 86 | 0.0 | 0.0 | 0.00 | 0.30 | 0.00 | 41 | 1011.5 |
| 20260506185542 | 13 | 167 | 0.0 | 4.8 | 0.00 | 0.30 | 0.00 | 41 | 1011.7 |
| 20260506184547 | 12 | 87 | 0.0 | 0.0 | 0.00 | 0.30 | 0.00 | 43 | 1011.7 |
| 20260506183518 | 12 | 194 | 0.0 | 0.0 | 0.00 | 0.33 | 0.00 | 42 | 1011.9 |
| 20260506182537 | 12 | 179 | 0.0 | 0.0 | 0.00 | 0.33 | 0.00 | 42 | 1011.9 |
| 20260506181513 | 12 | 195 | 0.0 | 0.0 | 0.00 | 0.33 | 0.00 | 42 | 1011.8 |
| 20260506180503 | 12 | 119 | 0.0 | 0.0 | 0.00 | 0.33 | 0.00 | 42 | 1012.0 |
| 20260506175453 | 12 | 110 | 0.0 | 0.0 | 0.00 | 0.33 | 0.00 | 41 | 1011.8 |
| 20260506174503 | 12 | 165 | 0.0 | 0.0 | 0.00 | 0.33 | 0.00 | 41 | 1011.7 |
| 20260506173505 | 12 | 207 | 0.0 | 0.0 | 0.00 | 0.33 | 0.00 | 40 | 1011.8 |
| 20260506172522 | 12 | 164 | 0.0 | 1.6 | 0.00 | 0.33 | 0.00 | 40 | 1011.7 |
| 20260506171517 | 12 | 207 | 0.0 | 0.0 | 0.00 | 0.33 | 0.00 | 43 | 1011.6 |
| 20260506170520 | 12 | 167 | 0.0 | 0.0 | 0.00 | 0.33 | 0.00 | 43 | 1011.6 |
| 20260506165453 | 12 | 247 | 0.0 | 0.0 | 0.00 | 0.33 | 0.00 | 41 | 1011.8 |
| 20260506164502 | 12 | 145 | 0.0 | 0.0 | 0.00 | 0.33 | 0.00 | 43 | 1011.8 |
| 20260506163525 | 12 | 200 | 0.0 | 0.0 | 0.00 | 0.33 | 0.00 | 42 | 1011.8 |
| 20260506162547 | 12 | 182 | 0.0 | 16.1 | 0.00 | 0.33 | 0.00 | 40 | 1011.9 |
| 20260506161606 | 13 | 159 | 0.0 | 0.0 | 0.00 | 0.33 | 0.00 | 41 | 1011.7 |
| 20260506160531 | 13 | 139 | 0.0 | 6.4 | 0.00 | 0.33 | 0.00 | 40 | 1011.9 |
| 20260506155520 | 13 | 282 | 0.0 | 0.0 | 0.00 | 0.33 | 0.00 | 42 | 1011.8 |
| 20260506154513 | 13 | 157 | 0.0 | 9.7 | 0.00 | 0.33 | 0.00 | 42 | 1012.0 |
| 20260506153456 | 12 | 126 | 0.0 | 0.0 | 0.00 | 0.33 | 0.00 | 42 | 1011.9 |
| 20260506150237 | 12 | 220 | 0.0 | 0.0 | 0.00 | 0.33 | 0.00 | 45 | 1011.7 |
| 20260506145223 | 12 | 242 | 0.0 | 0.0 | 0.00 | 0.33 | 0.00 | 45 | 1011.5 |
| 20260506144223 | 12 | 188 | 0.0 | 1.6 | 0.00 | 0.33 | 0.00 | 44 | 1011.4 |
| 20260506143210 | 12 | 166 | 0.0 | 0.0 | 0.00 | 0.33 | 0.00 | 44 | 1011.4 |
| 20260506142149 | 11 | 161 | 0.0 | 0.0 | 0.00 | 0.33 | 0.00 | 52 | 1011.1 |
| 20260506141154 | 11 | 190 | 0.0 | 0.0 | 0.00 | 0.33 | 0.00 | 51 | 1011.2 |
| 20260506140219 | 11 | 207 | 0.0 | 0.0 | 0.00 | 0.33 | 0.00 | 48 | 1011.1 |
| 20260506135144 | 10 | 153 | 0.0 | 16.1 | 0.00 | 0.33 | 0.00 | 47 | 1011.0 |
| 20260506134154 | 10 | 179 | 0.0 | 0.0 | 0.00 | 0.33 | 0.00 | 52 | 1011.0 |
| 20260506132050 | 10 | 202 | 0.0 | 0.0 | 0.00 | 0.33 | 0.00 | 56 | 1010.8 |
| 20260506131045 | 9 | 171 | 0.0 | 0.0 | 0.00 | 0.33 | 0.00 | 58 | 1010.4 |
| 20260506124837 | 8 | 239 | 0.0 | 0.0 | 0.00 | 0.33 | 0.00 | 61 | 1010.2 |
| 20260506123859 | 8 | 236 | 0.0 | 0.0 | 0.00 | 0.33 | 0.00 | 64 | 1010.2 |
| 20260506122903 | 8 | 168 | 0.0 | 0.0 | 0.00 | 0.33 | 0.00 | 66 | 1010.3 |
| 20260506121904 | 8 | 192 | 0.0 | 0.0 | 0.00 | 0.33 | 0.00 | 70 | 1010.1 |
| 20260506120846 | 7 | 193 | 0.0 | 0.0 | 0.00 | 0.33 | 0.00 | 72 | 1010.2 |
| 20260506115837 | 7 | 202 | 0.0 | 0.0 | 0.00 | 0.33 | 0.00 | 77 | 1009.9 |
| 20260506114810 | 7 | 184 | 0.0 | 0.0 | 0.00 | 0.33 | 0.00 | 79 | 1009.5 |
| 20260506113812 | 7 | 184 | 0.0 | 0.0 | 0.00 | 0.33 | 0.00 | 83 | 1009.6 |
| 20260506112815 | 6 | 186 | 0.0 | 0.0 | 0.00 | 0.33 | 0.00 | 82 | 1009.3 |
| 20260506111802 | 6 | 182 | 0.0 | 0.0 | 0.00 | 0.33 | 0.00 | 83 | 1009.1 |
| 20260506110744 | 7 | 183 | 0.0 | 0.0 | 0.00 | 0.33 | 0.00 | 86 | 1008.9 |
| 20260506105753 | 7 | 165 | 0.0 | 0.0 | 0.00 | 0.33 | 0.00 | 87 | 1008.6 |
| 20260506104756 | 7 | 164 | 0.0 | 0.0 | 0.00 | 0.33 | 0.00 | 88 | 1008.6 |
| 20260506103807 | 7 | 188 | 0.0 | 0.0 | 0.00 | 0.33 | 0.00 | 89 | 1008.3 |
| 20260506102754 | 7 | 173 | 0.0 | 0.0 | 0.00 | 0.33 | 0.00 | 90 | 1008.1 |
| 20260506101730 | 7 | 178 | 0.0 | 0.0 | 0.00 | 0.33 | 0.00 | 90 | 1008.1 |